Weather in Hinton

Canada     53°23′45″N   117°35′49″W
temp.,
°C
wind,
m/s
gust,
m/s
humid.,
%
clouds,
%
prec.,
mm/h
press.,
hPa
HPBL,
m
25 february, thu
thu2523:00−9sw51682100 0.0 1016497
02:00−9ssw2691100 0.4 1011226
05:00−9sw4982100 0.4 1006241
08:00−10sw5148498 0.0 1005458
11:00−2wsw7196449 0.0 10001686
14:000wsw7166044 0.0 9972657
17:00−2wsw4127169 0.1 9971396
20:00−7wsw248584 0.0 100093
26 february, fri
fri2623:00−9nnw239192 0.0 100164
02:00−14nnw2594100 0.1 1004380
05:00−15nw1396100 1.3 1008302
08:00−16n2396100 1.1 1011253
11:00−15n1189100 2.1 1011288
14:00−10ene1182100 0.4 1011449
17:00−11ne2294100 0.8 1012267
20:00−13nne1397100 1.1 1015168
27 february, sat
sat2723:00−16nw1198100 1.5 101822
02:00−17w1297100 0.1 102031
05:00−15w2297100 0.1 102241
08:00−18wsw239598 0.0 102439
11:00−10sw368249 0.0 1021286
14:00−4wsw48660 0.0 10181248
17:00−5sw39737 0.0 1016700
20:00−9sw3118588 0.0 1017337
28 february, sun
sun2823:00−8wsw3138094 0.0 1017473
02:00−8sw51576100 0.0 1015465
05:00−8wsw51579100 0.3 1014518
08:00−7wsw61880100 0.1 1012733
11:00−5wsw61578100 0.1 1011512
14:00−1wsw61276100 0.0 1010434
17:00−1sw61477100 0.0 1010463
20:00−4sw51381100 0.0 1011352
1 march, mon
mon123:00−6sw41086100 0.0 1013269
02:00−7sw41086100 0.0 1013232
05:00−8sw4887100 0.0 1013177
08:00−9sw4888100 0.0 1012163
11:00−2sw51181100 0.0 1009373
14:00+3sw7186975 0.0 10051654
17:00+1sw5167369 0.0 10041634
20:00−4wnw4128883 0.1 1007553